www.pogodaiklimat.ru

Погода и климат >> Архив погоды >> Россия >> Нижегородская область >> Большое Болдино


ПОГОДА в Большом Болдино

  • Прогноз погоды в Большом Болдино
  • Монитор погоды в Большом Болдино
  • Климат города

АРХИВ ПОГОДЫ в Большом Болдино

Время (UTC), дата Ветер
(напр.,м/с)
 
Видим.   Явления Облачность Т
(С)
Тd
(С)
f
(%)
Тe
(С)
Тes
(С)
Комфортность P
(гПа)
Po
(гПа)
Тmin
(С)
Tmax
(С)
R
(мм)
R24
(мм)
S
(см)
09 14.06 З 4-5
{7}
20 км 10/10 750 м
[Sc]
+10.8 +4.6 66 +9 +9 1014.6 991.5
12 14.06 СЗ 4-5
{7}
20 км 10/10 900 м
[Sc]
+11.3 +5.5 67 +9 +9 1015.9 992.7
15 14.06 СЗ 3-5
{6}
20 км 10/3 600 м
[Sc Ac trans Cs]
+12.0 +5.3 64 +11 +11 1016.2 993.1 +12.4
18 14.06 ЮЗ 2-2
{5}
20 км 10/0
[Ac lent Ci fib]
+9.7 +6.1 78 +8 +8 1016.4 993.1
21 14.06 З 2-2
{3}
20 км 10/0
[Ac trans Ci fib]
+7.2 +5.0 86 +5 +5 1017.1 993.6
00 15.06 С 1-1
{3}
20 км 10/0
[Ac und]
+6.6 +5.0 90 +5 +5 1018.2 994.7
03 15.06 С 2-3
{4}
20 км 10/0
[Ac trans Ci fib]
+8.6 +6.7 88 +7 +8 1019.3 996.0 +6.4
06 15.06 С 4-6
{7}
20 км 8/3 600 м
[Cu hum Ac trans Ci]
+12.1 +4.6 60 +10 +14 1019.2 996.1
09 15.06 С 4-8
{9}
20 км 6/4 600 м
[Cu hum Ac trans Ci fib]
+13.4 +1.9 46 +12 +17 1019.1 996.1
12 15.06 С 4-7
{8}
20 км 6/3 600 м
[Cu hum Ac trans Ci fib]
+15.1 +2.3 42 +14 +18 1018.6 995.8
15 15.06 С 4-6
{8}
20 км 6/3 600 м
[Cu hum Ac trans Ci fib]
+15.3 +1.3 39 +15 +15 1018.6 995.8 +16.1
18 15.06 штиль 0
{6}
20 км 4/0
[Ac trans]
+12.0 +2.9 54 +12 +12 1018.7 995.6
21 15.06 Ю 1-2
{2}
20 км 3/0
[Ci fib]
+8.3 +2.9 69 +8 +8 1019.2 995.8
00 16.06 ЮЗ 1-1
{2}
20 км 3/0
[Ci fib]
+6.4 +2.8 78 +5 +5 1019.7 996.1
03 16.06 З 2-2
{2}
20 км 8/3 600 м
[Cu hum Ac trans Ci]
+8.1 +4.1 76 +6 +7 1020.4 997.0 +5.4
06 16.06 З 3-4
{4}
20 км 3/0
[Ci fib]
+16.1 +6.5 53 +16 +24 1020.4 997.5
09 16.06 СЗ 4-9
{9}
20 км 4/0
[Ci fib]
+18.6 +5.5 42 +19 +29 1019.1 996.6
12 16.06 С 4-6
{9}
20 км 4/0
[Ci fib]
+18.7 +4.0 38 +19 +26 1018.8 996.3
15 16.06 СЗ 4-6
{8}
20 км 3/0
[Ci fib]
+19.4 +2.7 33 +20 +21 1018.3 995.8 +20.0
18 16.06 СВ 1-2
{6}
20 км ясно +15.5 +3.8 46 +16 +16 1018.8 996.0
21 16.06 ЮЗ 2-2
{3}
20 км ясно +10.1 +4.3 67 +9 +9 1019.6 996.3
00 17.06 ЮЗ 3-3
{4}
20 км ясно +8.0 +3.8 75 +5 +5 1019.9 996.5
03 17.06 ЮЗ 1-2
{3}
20 км 3/0
[Ci fib]
+10.5 +5.8 73 +10 +13 1019.8 996.6 +7.4
06 17.06 СЗ 4-6
{6}
20 км 4/0
[Ci]
+19.7 +7.8 46 +21 +27 комфорт 1019.0 996.5
09 17.06 СЗ 6-8
{9}
20 км 5/0
[Ac cast Ci fib]
+22.5 +6.8 36 +23 +29 комфорт 1017.4 995.2
12 17.06 С 6-8
{9}
20 км 8/3 1000 м
[Cu hum Ac trans Ci fib]
+23.7 +9.0 39 +24 +26 комфорт 1015.8 993.7
15 17.06 С 3-5
{10}
20 км 8/4 600 м
[Cu med, cong Ac cast Ci fib]
+23.6 +8.4 38 +24 +25 комфорт 1014.2 992.2 +24.5
18 17.06 штиль 0
{5}
20 км 6/0
[Ac cast]
+20.0 +8.2 47 +21 +21 комфорт 1015.1 992.6
21 17.06 ЮЗ 1-2
{3}
20 км 3/0
[Ac lent]
+15.2 +9.7 70 +16 +16 1015.4 992.6
00 18.06 ЮЗ 2-2
{4}
20 км 4/0
[Ac cast]
+12.0 +9.3 84 +11 +11 1015.9 992.6
03 18.06 СЗ 1-2
{3}
20 км 3/0
[Cs]
+14.5 +12.1 86 +15 +18 1015.6 992.8 +11.0
06 18.06 С 2-4
{4}
20 км 1/1 600 м
[Cu hum]
+21.5 +13.5 60 +24 +34 комфорт 1014.8 992.5
09 18.06 С 5-8
{8}
20 км 4/3 600 м
[Cu med, cong Ci fib]
+25.0 +7.4 32 +25 +31 комфорт 1014.2 992.2
12 18.06 С 4-6
{10}
20 км 8/3 600 м
[Cu hum Ci fib]
+25.8 +7.3 31 +26 +30 жарко 1013.7 991.8
15 18.06 С 3-5
{9}
20 км 3/1 600 м
[Cu hum Ci fib]
+25.3 +8.9 35 +26 +27 жарко 1012.8 990.9 +26.5
18 18.06 С 1-2
{5}
20 км 1/0
[Ci fib]
+21.0 +11.7 55 +24 +24 комфорт 1013.0 990.8
21 18.06 ЮЗ 1-1
{2}
20 км 1/0
[Ac trans]
+16.5 +10.3 67 +17 +17 1013.4 990.8
00 19.06 ЮЗ 2-2
{2}
20 км 3/3 600 м
[Sc]
+13.6 +11.1 85 +13 +13 1013.5 990.7
03 19.06 ЮЗ 1-2
{3}
20 км 3/0
[Ac trans]
+16.5 +12.7 78 +17 +20 1013.0 990.4 +12.8
06 19.06 З 2-3
{3}
10 км 8/0
[Ac trans]
+23.1 +14.3 58 +27 +32 душно 1012.4 990.4
09 19.06 З 4-6
{7}
20 км 8/4 600 м
[Cu hum Ac trans Ci fib]
+26.1 +9.7 36 +27 +31 жарко 1011.9 990.1
12 19.06 СЗ 6-11
{11}
20 км 10/4 600 м
[Cb cap Ac trans Ci]
+25.4 +11.3 41 +27 +28 жарко 1010.9 989.0
15 19.06 ЮЗ 3-5
{11}
20 км 8/4 600 м
[Cb cap Ac trans Ci fib]
+25.1 +11.8 43 +27 +27 жарко 1009.7 987.8 +28.3
18 19.06 Ю 2-3
{6}
20 км 8/3 600 м
[Cu hum Ac trans Ci]
+21.6 +12.4 56 +24 +24 комфорт 1009.2 987.1
21 19.06 ЮЗ 1-3
{4}
20 км 8/3 600 м
[Sc Ac trans]
+17.4 +12.7 74 +18 +18 1008.5 986.1
00 20.06 ЮЗ 2-4
{4}
10 км 10/3 600 м
[Sc Ac und]
+17.1 +12.8 76 +17 +17 1007.4 985.0
03 20.06 ЮЗ 2-5
{5}
10 км 10/0
[Ac und]
+17.3 +13.4 78 +18 +18 1006.0 983.6 +16.3
06 20.06 З 5-8
{8}
20 км {ливн. осадки} 10/10 480 м
[Cb cap]
+18.7 +14.8 78 +19 +19 1004.7 982.5
09 20.06 СЗ 7-12
{15}
4000 м слабый ливневой дождь 10/10 400 м
[Cb cap]
+21.3 +15.4 69 +24 +24 комфорт 1003.4 981.4
12 20.06 З 8-12
{16}
20 км {гроза, ливн. осадки} 3/3 1000 м
[Cu hum]
+21.5 +8.0 42 +23 +24 комфорт 1004.9 982.7
15 20.06 З 7-12
{14}
20 км 3/3 1000 м
[Cu hum]
+21.1 +5.1 35 +22 +22 комфорт 1005.5 983.3 +21.9 4
18 20.06 ЮЗ 3-4
{12}
20 км 8/4 300 м
[Sc Ac trans]
+15.0 +6.1 55 +14 +14 1006.6 984.0
21 20.06 ЮЗ 4-6
{6}
20 км 10/10 420 м
[Sc]
+12.8 +5.8 62 +11 +11 1007.2 984.4
00 21.06 З 4-6
{9}
20 км 3/0
[Ac lent]
+10.6 +5.6 71 +8 +8 1007.9 985.0
03 21.06 З 6-9
{9}
20 км ясно +12.5 +6.8 68 +10 +11 1008.1 985.3 +10.2

 

Местоположение метеостанции Большое Болдино (Нижегородская область, Россия): широта 55.02 долгота 45.32 высота над уровнем моря 192 м.

В архиве по умолчанию представлена погода в Большом Болдино за последнюю неделю. Архивные данные за месяц целиком и за предыдущие месяцы, начиная с января 2011 года, Вы можете получить, выбрав интересующий диапазон дат из раскрывающегося списка и нажав кнопку "Ввод!".


*Определитесь, кто Вы:
робот инопланетянин человек

Внимание! Время в таблицах - всемирное. Для получения местного времени необходимо прибавить поправку, которая в Большом Болдино равна 3 ч.

Смотрите также архив погоды в соседних городах и на ближайших метеорологических станциях:

Погода в Лукоянове (Нижегородская область, Россия) (52 км)
Погода в Сергаче (Нижегородская область, Россия) (58 км)
Погода в Порецком (Чувашия, Россия) (67 км)
Погода в Алатыре (Чувашия, Россия) (84 км)
Погода в Саранске (Мордовия, Россия) (99 км)
Погода в Больших Березниках (Мордовия, Россия) (104 км)
Погода в Арзамасе (Нижегородская область, Россия) (105 км)
Погода в Сурском (Ульяновская область, Россия) (107 км)
Погода в Лысково (Нижегородская область, Россия) (112 км)
Погода в Дальнем Константиново (Нижегородская область, Россия) (117 км)

Пояснения к столбцам:

Ветер - указаны скорость ветра в м/с - средняя за 10 мин, порывы в срок и между сроками (в фигурных скобках) и направление, откуда дует ветер: С - северный, СВ - северо-восточный, В - восточный, ЮВ - юго-восточный, Ю - южный, ЮЗ - юго-западный, З - западный, СЗ - северо-западный.
Видимость - горизонтальная дальность видимости в метрах или километрах. При видимости от 1 до 10 км при отсутствии осадков обычно наблюдается дымка, при ухудшении видимости до 1 км и менее - туман. В сухую погоду видимость может ухудшаться дымом, пылью или мглою.
Явления - указаны атмосферные явления, наблюдавшиеся в срок или в последний час перед сроком; фигурными скобками обозначены явления, наблюдавшиеся между сроками (за 1-3 часа до срока); квадратными скобками обозначены град или гололедные отложения с указанием их диаметра в мм.
Облачность - указаны через наклонную черту общая и нижняя облачность в баллах и высота нижней границы облаков в метрах; квадратными скобками обозначены формы облаков: Ci - перистые, Cs - перисто-слоистые, Cc - перисто-кучевые, Ac - высококучевые, As - высокослоистые, Sc - слоисто-кучевые, Ns - слоисто-дождевые, Cu - кучевые, Cb - кучево-дождевые. Подробнее классификацию облаков см. в Атласе облаков (PDF).
T - Температура воздуха - температура, измеренная на высоте 2 м над землей.
Td - Температура точки росы - температура, при понижении до которой содержащийся в воздухе водяной пар достигнет насыщения.
f - Относительная влажность воздуха - влажноcть воздуха, измеренная на высоте 2 м над землей.
Te - Эффективная температура - температура, которую ощущает одетый по сезону человек в тени. Характеристика душности погоды. При расчете учитывается влияние влажности воздуха и скорости ветра на теплоощущения человека.
Tes - Эффективная температура на солнце - температура, которую ощущает человек, с поправкой на солнечный нагрев. Характеристика знойности погоды. Зависит от высоты солнца над горизонтом, облачности и скорости ветра. Ночью, в пасмурную погоду, а также при ветре 12 м/с и более поправка равна нулю.
P - Атмосферное давление - приведенное к уровню моря атмосферное давление.
Po - Атмосферное давление - измеренное на уровне метеостанции атмосферное давление.
Tmin - Минимальная температура - минимум температуры воздуха на высоте 2 м над землей.
Tmax - Максимальная температура - максимум температуры воздуха на высоте 2 м над землей.
R - Количество осадков - Количество выпавших осадков за период времени, мм. При наведении курсора мыши на число - период времени, за который выпало указанное количество осадков.
R24 - Количество осадков - Количество выпавших осадков за 24 часа, мм.
S - Снежный покров - Высота снежного покрова, см. При наведении курсора мыши на число - состояние снежного покрова и степень покрытия местности в баллах.